Location: Buchdorf
(48.7842°N, 10.8275°E)
Time: 22:10:35
(UTC+00:00)

N. Korean satellite - Pass Details

Date: 08 March 2021
Orbit: 453 x 499 km, 97.2° (Epoch: 12 April)

Event Time Altitude Azimuth Distance (km) Brightness Sun altitude
Rises 04:42:49 0° 14° (NNE) 2,538 10.5 -11.0°
Reaches altitude 10° 04:44:53 10° 16° (NNE) 1,663 9.6 -10.6°
Maximum altitude 04:48:27 74° 102° (ESE) 510 6.8 -10.0°
Drops below altitude 10° 04:52:03 10° 188° (S) 1,674 9.2 -9.4°
Sets 04:54:08 0° 190° (S) 2,557 10.1 -9.1°
